Location: Arroyo de la Robledosa
(40.2333°N, 4.8167°W)
Time: 03:01:37
(UTC+00:00)

Daily predictions for brighter satellites

Satellite Brightness Start Highest point End
(mag) Time Altitude Azimuth Time Altitude Azimuth Time Altitude Azimuth
Cosmos 2082 Rocket 3.5 00:07:01 29° E 00:07:01 29° E 00:10:58 10° NE
Cosmos 1833 Rocket 2.8 00:08:10 70° NW 00:08:10 70° NW 00:13:39 10° NNE
Cosmos 724 4.3 00:12:03 69° ENE 00:12:03 69° ENE 00:17:20 10° NE
Cosmos 1417 Rocket 4.4 00:11:35 10° N 00:17:54 80° W 00:18:02 79° WSW
Cosmos 1140 Rocket 3.8 00:22:28 62° NW 00:22:28 62° NW 00:27:10 10° NNE
ATLAS CENTAUR R/B 4.4 00:11:04 10° NW 00:25:03 77° NE 00:31:03 28° SE
USA 267 3.5 00:21:29 10° NE 00:27:56 65° NW 00:30:21 40° WSW
GP-B 4.0 00:31:54 10° N 00:35:02 46° N 00:35:02 46° N
H-2A R/B 3.1 00:35:42 10° N 00:38:59 42° NNW 00:38:59 42° NNW
NOSS 3-4 (A) 4.2 00:36:34 10° NNW 00:43:33 65° NE 00:47:10 34° ESE
NOSS 3-4 (C) 4.2 00:36:41 10° NNW 00:43:39 64° NE 00:47:19 33° ESE
Cosmos 2251 Rocket 3.7 00:44:26 65° NNW 00:44:26 65° NNW 00:49:12 10° NNE
Cosmos 407 Rocket 3.8 00:44:27 61° NW 00:44:27 61° NW 00:49:19 10° NNE
S3M 4.2 00:38:20 10° NNW 00:44:36 59° W 00:44:46 59° W
Cosmos 2315 Rocket 3.9 00:43:51 10° N 00:50:09 80° W 00:50:26 78° SW
Cosmos 1190 Rocket 4.2 00:51:10 69° NE 00:51:10 69° NE 00:55:54 10° NNE
Cosmos 2285 Rocket 4.4 00:51:49 47° W 00:52:42 50° WNW 00:58:50 10° N
Cosmos 1763 Rocket 3.7 00:53:07 10° NNW 00:58:19 68° ENE 00:58:19 68° ENE
USA 234 3.5 00:56:30 17° ESE 01:01:40 65° NE 01:08:09 10° NW
Cosmos 1862 Rocket 4.4 01:04:13 48° NNE 01:04:13 48° NNE 01:07:23 10° N
Meteor 1-23 Rocket 4.3 01:03:41 62° WNW 01:03:41 62° WNW 01:09:09 10° N
Cosmos 1953 4.3 01:02:36 10° NNE 01:05:20 22° ENE 01:05:20 22° ENE
Cosmos 1697 Rocket 3.5 01:01:32 10° NW 01:05:44 39° WNW 01:05:44 39° WNW
Cosmos 1980 Rocket 2.1 01:08:20 10° NNW 01:14:01 85° W 01:14:01 85° W
Cosmos 540 Rocket 3.5 01:11:41 10° NNW 01:16:52 72° ENE 01:16:52 72° ENE
COSMOS 2406 3.1 01:19:32 76° W 01:19:47 78° WNW 01:25:35 10° NNE
Cosmos 1244 Rocket 4.3 01:20:19 74° SSW 01:20:53 84° W 01:27:06 10° N
Cosmos 1356 Rocket 4.4 01:22:17 43° N 01:22:17 43° N 01:25:09 10° N
ADEOS II 4.3 01:19:39 10° ENE 01:22:28 14° E 01:24:13 13° ESE
Lacrosse 5 rocket 4.0 01:21:29 10° NNW 01:24:30 19° NNE 01:27:24 10° ENE
Cosmos 2369 3.5 01:19:24 10° NNW 01:25:09 90° W 01:25:30 80° SSE
IDEFIX/ARIANE 42P 3.6 01:23:01 10° NNE 01:27:48 34° E 01:28:28 33° ESE
Okean 1-7 3.5 01:30:04 57° NNE 01:30:04 57° NNE 01:33:36 10° N
Meteor 2-10 Rocket 4.1 01:25:15 10° NNW 01:30:39 48° W 01:30:39 48° W
Meteor 1-16 Rocket 4.2 01:27:22 10° N 01:33:06 83° E 01:33:51 68° SSE
Okean 3 4.4 01:34:53 40° NNW 01:34:53 40° NNW 01:37:49 10° N
Cosmos 1315 Rocket 3.7 01:39:37 45° NE 01:39:37 45° NE 01:42:36 10° NNE
SJ 16-02 3.4 01:39:50 18° ESE 01:40:10 18° E 01:43:05 10° NE
Helios 1A Rocket 4.0 01:43:06 36° NNW 01:43:06 36° NNW 01:45:31 10° NNW
SL-16 R/B 3.3 01:39:06 10° N 01:44:27 40° ENE 01:49:03 13° SE
Cosmos 1850 Rocket 4.3 01:46:14 54° SE 01:46:46 57° ESE 01:51:56 10° NNE
Cosmos 2082 Rocket 3.1 01:48:50 34° W 01:49:57 37° WNW 01:55:14 10° N
Cosmos 1709 Rocket 4.4 01:49:42 38° SSE 01:51:51 55° E 01:58:02 10° NNE
Cosmos 1741 Rocket 4.2 01:51:18 56° SE 01:51:53 59° ESE 01:57:03 10° NNE
SL-16 R/B 4.4 01:50:05 10° ESE 01:55:10 27° ENE 02:00:15 10° N
Cosmos 1386 Rocket 4.5 01:55:08 56° SSW 01:56:36 79° W 02:03:02 10° N
Cosmos 1782 Rocket 4.2 01:54:40 10° N 01:58:54 48° E 01:59:39 43° ESE
Cosmos 1908 Rocket 3.5 01:55:15 10° N 01:59:24 75° NW 01:59:24 75° NW
CZ-2D R/B 2.7 01:55:53 10° NNE 02:01:12 52° E 02:02:41 40° SSE
Cosmos 968 Rocket 3.9 02:02:10 46° SE 02:03:02 51° ESE 02:08:01 10° NNE
Cosmos 2237 4.5 01:58:38 10° NNW 02:04:22 67° ENE 02:07:48 25° SE
Genesis I 4.3 02:05:37 33° E 02:05:37 33° E 02:08:06 10° NE
Cosmos 1455 3.2 02:02:51 10° N 02:05:04 37° NNW 02:05:04 37° NNW
Cosmos 2360 Rocket 4.0 02:01:25 10° N 02:06:24 30° ENE 02:11:20 10° ESE
DELTA 2 R/B (1) 3.4 02:06:58 45° W 02:08:47 85° S 02:14:21 10° E
MSX 3.8 02:08:30 10° NNE 02:14:15 80° ESE 02:16:00 47° S
Cosmos 841 Rocket 3.4 02:09:55 10° NNW 02:15:09 79° WSW 02:16:20 55° S
Resurs 1-4 Rocket 2.1 02:10:24 10° NNE 02:15:40 75° ESE 02:17:04 49° S
H-2A R/B 3.3 02:15:55 10° N 02:19:49 70° WNW 02:19:49 70° WNW
ATLAS CENTAUR R/B 4.5 02:10:43 10° NW 02:21:21 35° WSW 02:23:12 33° SW
OAO 3 Rocket 3.8 02:24:07 41° SSE 02:24:07 41° SSE 02:27:55 10° ESE
Meteor 1-4 Rocket 4.5 02:25:17 16° NW 02:25:17 16° NW 02:26:18 10° NNW
FENGYUN 3A 4.2 02:19:51 10° NNE 02:25:06 52° E 02:27:27 30° SSE
Cosmos 2278 3.6 02:20:48 10° NNW 02:26:30 71° WSW 02:28:37 39° S
COBE Rocket 4.0 02:21:50 10° N 02:26:40 61° WNW 02:27:39 50° WSW
CZ-2C R/B 2.5 02:29:14 35° SSE 02:31:31 88° ENE 02:36:43 10° NNW
Cosmos 2242 Rocket 3.5 02:30:52 58° S 02:31:43 89° E 02:36:12 10° N
Timation 1 Rocket 4.3 02:32:20 42° SW 02:34:24 75° WNW 02:40:23 10° NNE
Cosmos 1745 Rocket 4.4 02:33:16 36° WSW 02:35:06 45° WNW 02:41:06 10° N
Cosmos 2333 Rocket 3.1 02:33:58 10° NNW 02:39:32 49° ENE 02:45:04 10° SE
SL-27 R/B 2.7 02:40:26 50° NE 02:40:26 50° NE 02:42:40 10° NNE
Cosmos 2098 Rocket 4.2 02:35:30 10° N 02:40:48 60° E 02:46:36 12° SSE
Cosmos 1953 4.0 02:38:23 10° NW 02:40:27 20° WNW 02:40:27 20° WNW
Cosmos 1814 Rocket 4.4 02:38:22 10° NNW 02:43:33 64° ENE 02:48:45 10° SSE
Cosmos 1242 Rocket 3.5 02:44:54 28° NW 02:44:54 28° NW 02:46:43 10° N
Cosmos 2322 Rocket 2.3 02:38:30 10° NNW 02:44:11 77° ENE 02:49:51 10° SSE
USA 234 3.7 02:43:44 33° SSW 02:44:52 35° SW 02:50:47 10° WNW
SL-8 R/B 3.5 02:41:30 10° WNW 02:46:14 67° SW 02:50:58 10° SE
Meteor 2-5 Rocket 4.0 02:43:00 27° S 02:46:20 72° E 02:52:17 10° NNE
SL-4 R/B 2.8 02:47:25 36° SSE 02:48:16 41° SE 02:52:26 10° ENE
NPP 4.2 02:45:07 10° N 02:50:11 43° WNW 02:52:03 32° WSW
Cosmos 1408 3.0 02:53:36 37° NW 02:53:36 37° NW 02:55:58 10° N
Cosmos 2074 Rocket 4.5 02:48:44 16° SSE 02:53:41 57° E 02:59:45 10° NNE
Cosmos 1300 Rocket 3.9 02:52:32 10° NNW 02:56:39 44° W 02:57:22 40° WSW
Tiangong -0.4 03:00:18 21° SE 03:00:18 21° SE 03:02:17 10° E
Cosmos 1833 4.1 02:58:20 31° SSW 03:01:10 85° WNW 03:06:51 10° NNE
ADEOS II 2.1 02:57:19 10° N 03:02:31 66° WNW 03:05:04 30° SW
Lacrosse 5 rocket 1.0 02:59:14 10° NW 03:03:15 71° SW 03:07:03 10° SE
IDEFIX/ARIANE 42P 3.7 03:02:41 10° N 03:07:10 29° WNW 03:09:14 22° WSW
ALOS 2.2 03:03:11 10° NNE 03:07:50 81° ESE 03:10:34 24° S
Cosmos 2184 Rocket 4.1 03:06:43 16° S 03:11:49 77° E 03:18:06 10° N
Cosmos 1378 Rocket 3.5 03:10:03 25° S 03:12:31 82° E 03:16:49 10° N
Cosmos 405 Rocket 3.8 03:11:21 10° N 03:14:47 41° ENE 03:18:15 10° SSE
SJ 16-02 2.1 03:16:36 27° WSW 03:18:11 36° WNW 03:22:13 10° N
ATLAS CENTAUR R/B 3.1 03:16:00 11° SSE 03:18:17 19° ESE 03:20:52 10° ENE
CZ-2C R/B 3.9 03:15:58 10° NNE 03:20:12 32° E 03:24:19 10° SSE
Envisat 3.7 03:15:51 10° NNE 03:20:48 50° E 03:25:42 10° S
Okean 1 Rocket 4.2 03:18:02 10° N 03:22:11 43° ENE 03:26:17 10° SSE
Cosmos 2154 Rocket 4.1 03:17:10 11° S 03:23:03 77° E 03:29:16 10° N
UNK 3.7 03:19:48 10° SSE 03:24:26 87° ENE 03:29:06 10° NNW
CZ-2C R/B 4.0 03:20:45 10° N 03:26:05 39° WNW 03:29:26 20° SW
Cosmos 839 Rocket 4.1 03:20:15 10° NNW 03:27:15 89° WSW 03:33:24 10° SSE
SL-16 R/B 3.1 03:23:35 10° NW 03:28:18 28° WSW 03:30:47 20° SW
ATLAS 2AS CENTAUR R/B 3.2 03:25:07 10° NNW 03:31:52 61° NE 03:38:23 10° SE
Meteor 1-28 Rocket 3.9 03:34:05 24° SW 03:35:16 30° W 03:38:28 10° NNW
Cosmos 2333 4.2 03:30:00 10° NNW 03:35:43 76° WSW 03:41:28 10° SSE
SL-16 R/B 2.7 03:32:20 10° S 03:38:22 51° W 03:44:28 10° NNW
CZ-2D R/B 3.7 03:36:45 10° NNW 03:40:47 22° WNW 03:43:59 13° WSW
Cosmos 2219 Rocket 2.2 03:36:03 10° NNW 03:41:44 88° ENE 03:47:24 10° SSE
BREEZE-M DEB (TANK) 3.9 03:40:00 10° NW 03:42:27 22° N 03:44:13 10° ENE
Cosmos 2181 Rocket 4.5 03:39:06 10° NNW 03:45:00 42° W 03:50:41 10° SSW
Thor Agena Rocket 4.4 03:41:36 10° NNE 03:46:40 49° E 03:51:44 10° S
RESURS DK-1 2.5 03:44:19 10° NW 03:48:15 49° WSW 03:52:10 10° S
CZ-4 R/B 3.8 03:45:22 10° NNE 03:50:05 84° WNW 03:54:52 10° SSW
COSMOS 2428 3.8 03:44:53 10° NNW 03:50:24 49° ENE 03:55:53 10° SE
Cosmos 2360 Rocket 2.7 03:45:12 10° NW 03:50:26 39° WSW 03:55:37 10° S
Resurs 1-4 Rocket 4.0 03:52:01 10° NNW 03:54:48 15° WNW 03:57:34 10° W
DELTA 2 R/B (1) 3.7 03:49:38 10° W 03:55:03 55° SSW 04:00:27 10° ESE
Cosmos 1975 Rocket 4.4 03:52:26 10° SSE 03:56:25 39° E 04:00:26 10° NNE
SL-24 DEB 4.4 03:54:27 10° N 03:58:59 71° E 04:03:28 10° S
BREEZE-M DEB (TANK) 4.1 03:59:39 10° NNW 04:01:43 29° NE 04:05:42 10° ESE
Cosmos 2327 Rocket 4.5 03:59:13 10° S 04:05:25 81° W 04:11:34 10° N
OAO 3 Rocket 4.1 04:01:51 10° WSW 04:06:08 30° SSW 04:10:23 10° SE
H-2A R/B 3.7 04:01:36 10° NNE 04:06:34 35° E 04:11:28 10° SSE
Geosat 4.0 04:03:29 10° SSE 04:08:26 65° WSW 04:13:26 10° NNW
Cosmos 1825 2.9 04:06:40 12° SW 04:09:24 30° WNW 04:12:27 10° NNW
Cosmos 2227 Rocket 4.4 04:05:57 10° SSE 04:10:12 22° E 04:14:29 10° NE
Cosmos 1503 Rocket 4.3 04:04:57 10° S 04:10:17 75° ESE 04:15:39 10° NNE
PAYLOAD A 3.9 04:06:50 10° NNE 04:11:40 87° WNW 04:16:38 10° SSW
ASTEX 1 3.4 04:06:48 10° S 04:11:44 76° W 04:16:40 10° N
Cosmos 1892 3.9 04:13:16 10° SW 04:16:00 22° WNW 04:18:48 10° NNW
YAOGAN 6 2.4 04:14:38 10° N 04:17:54 58° WNW 04:21:08 10° SSW
Cosmos 1025 Rocket 3.3 04:16:23 10° SSW 04:20:38 52° W 04:24:56 10° N
Cosmos 371 Rocket 3.3 04:18:16 10° SSW 04:23:01 69° WNW 04:27:48 10° NNE
Cosmos 2333 Rocket 3.3 04:19:01 10° NW 04:23:24 23° WSW 04:27:48 10° SSW
Cosmos 1455 Rocket 3.1 04:19:14 10° N 04:23:37 87° E 04:28:01 10° S
SL-4 R/B 3.1 04:23:02 10° W 04:27:09 40° NNW 04:31:23 10° NE
Cosmos 2322 Rocket 3.8 04:24:46 10° WNW 04:27:27 14° W 04:30:08 10° SW
Meteor 1-21 Rocket 4.4 04:22:03 10° SSW 04:27:56 69° W 04:33:51 10° N
